Location: Castifao
(42.5040°N, 9.1124°E)
Time: 15:23:21
(UTC+00:00)

Cosmos 1812 Rocket - Pass Details

Date: 23 January 2020
Orbit: 606 x 632 km, 82.5° (Epoch: 25 February)

Event Time Altitude Azimuth Distance (km) Brightness Sun altitude
Rises 17:11:26 0° 349° (N) 2,931 6.9 -8.8°
Reaches altitude 10° 17:13:41 10° 348° (NNW) 2,020 6.1 -9.2°
Maximum altitude 17:18:09 73° 264° (W) 664 3.9 -10.0°
Drops below altitude 10° 17:22:35 10° 180° (S) 2,006 6.4 -10.7°
Sets 17:24:49 0° 179° (S) 2,908 7.2 -11.1°
